Time,TemperatureF,DewpointF,PressureIn,WindDirection,WindDirectionDegrees,WindSpeedMPH,WindSpeedGustMPH,Humidity,HourlyPrecipIn,Conditions,Clouds,dailyrainin,SoftwareType,DateUTC
2013-02-28 00:01:00,46.5,44.9,30.24,SSE,168,1.0,2.0,94,0.00,,---,0.02,VWS V14.00,2013-02-28 08:01:00,
2013-02-28 00:06:00,46.5,44.9,30.24,SSE,168,0.0,1.0,94,0.00,,---,0.00,VWS V14.00,2013-02-28 08:06:00,
2013-02-28 00:11:00,46.7,45.1,30.24,SW,218,1.0,3.0,94,0.00,,---,0.00,VWS V14.00,2013-02-28 08:11:00,
2013-02-28 00:16:00,47.0,45.4,30.24,SW,220,1.0,4.0,94,0.00,,---,0.00,VWS V14.00,2013-02-28 08:16:00,
2013-02-28 00:21:00,47.3,45.7,30.24,SSW,212,2.0,4.0,94,0.00,,---,0.00,VWS V14.00,2013-02-28 08:21:00,
2013-02-28 00:26:00,47.5,45.9,30.24,SSW,203,0.0,4.0,94,0.00,,---,0.00,VWS V14.00,2013-02-28 08:26:00,
2013-02-28 00:31:00,47.6,46.0,30.24,SW,222,1.0,4.0,94,0.00,,---,0.00,VWS V14.00,2013-02-28 08:31:00,
2013-02-28 00:36:00,47.5,45.9,30.24,SSW,201,2.0,3.0,94,0.00,,---,0.00,VWS V14.00,2013-02-28 08:36:00,
2013-02-28 00:41:00,47.4,45.8,30.24,South,189,0.0,3.0,94,0.00,,---,0.00,VWS V14.00,2013-02-28 08:41:00,
2013-02-28 00:46:00,47.3,45.9,30.24,SSW,206,1.0,3.0,95,0.00,,---,0.00,VWS V14.00,2013-02-28 08:46:00,
2013-02-28 00:51:00,47.3,45.9,30.24,SSW,207,0.0,3.0,95,0.00,,---,0.00,VWS V14.00,2013-02-28 08:51:00,
2013-02-28 00:56:00,47.2,45.8,30.24,SSW,206,0.0,3.0,95,0.00,,---,0.00,VWS V14.00,2013-02-28 08:56:00,
2013-02-28 01:01:00,47.2,45.8,30.23,SSW,207,0.0,3.0,95,0.00,,---,0.00,VWS V14.00,2013-02-28 09:01:00,
2013-02-28 01:06:00,47.2,45.8,30.23,SSW,207,0.0,0.0,95,0.00,,---,0.00,VWS V14.00,2013-02-28 09:06:00,
2013-02-28 01:11:00,47.2,46.1,30.23,SSW,206,1.0,2.0,96,0.00,,---,0.00,VWS V14.00,2013-02-28 09:11:00,
2013-02-28 01:16:00,47.3,46.2,30.23,SSW,206,0.0,2.0,96,0.00,,---,0.00,VWS V14.00,2013-02-28 09:16:00,
2013-02-28 01:21:00,47.5,46.4,30.22,SSW,207,0.0,2.0,96,0.00,,---,0.00,VWS V14.00,2013-02-28 09:21:00,
2013-02-28 01:26:00,47.4,46.0,30.22,SSW,207,0.0,2.0,95,0.00,,---,0.00,VWS V14.00,2013-02-28 09:26:00,
2013-02-28 01:31:00,47.3,45.9,30.23,SSW,207,0.0,2.0,95,0.00,,---,0.00,VWS V14.00,2013-02-28 09:31:00,
2013-02-28 01:36:00,47.3,46.2,30.23,SSW,194,2.0,2.0,96,0.00,,---,0.00,VWS V14.00,2013-02-28 09:36:00,
2013-02-28 01:41:00,47.6,46.5,30.23,SSW,204,1.0,2.0,96,0.00,,---,0.00,VWS V14.00,2013-02-28 09:41:00,
2013-02-28 01:47:00,48.0,46.6,30.23,SSW,193,2.0,4.0,95,0.00,,---,0.00,VWS V14.00,2013-02-28 09:47:00,
2013-02-28 01:51:00,48.3,46.7,30.23,South,178,2.0,4.0,94,0.00,,---,0.00,VWS V14.00,2013-02-28 09:51:00,
2013-02-28 01:56:00,48.4,46.8,30.23,SW,217,2.0,4.0,94,0.00,,---,0.00,VWS V14.00,2013-02-28 09:56:00,
2013-02-28 02:01:00,48.7,46.8,30.23,South,171,2.0,4.0,93,0.00,,---,0.00,VWS V14.00,2013-02-28 10:01:00,
2013-02-28 02:06:00,49.2,47.0,30.23,SSE,163,1.0,6.0,92,0.00,,---,0.00,VWS V14.00,2013-02-28 10:06:00,
2013-02-28 02:11:00,49.6,46.8,30.23,South,188,2.0,8.0,90,0.00,,---,0.00,VWS V14.00,2013-02-28 10:11:00,
2013-02-28 02:17:00,50.0,47.2,30.23,SSW,198,2.0,9.0,90,0.00,,---,0.00,VWS V14.00,2013-02-28 10:17:00,
2013-02-28 02:21:00,50.2,47.1,30.23,South,188,1.0,9.0,89,0.00,,---,0.00,VWS V14.00,2013-02-28 10:21:00,
2013-02-28 02:27:00,50.2,47.1,30.23,SSW,198,2.0,9.0,89,0.00,,---,0.00,VWS V14.00,2013-02-28 10:27:00,
2013-02-28 02:32:00,50.1,47.0,30.23,SSE,157,1.0,9.0,89,0.00,,---,0.00,VWS V14.00,2013-02-28 10:32:00,
2013-02-28 02:37:00,50.1,47.0,30.23,South,183,3.0,6.0,89,0.00,,---,0.00,VWS V14.00,2013-02-28 10:37:00,
2013-02-28 02:42:00,50.1,47.0,30.22,SSW,207,3.0,6.0,89,0.00,,---,0.00,VWS V14.00,2013-02-28 10:42:00,
2013-02-28 02:47:00,50.2,47.1,30.22,South,190,3.0,7.0,89,0.00,,---,0.00,VWS V14.00,2013-02-28 10:47:00,
2013-02-28 02:52:00,50.2,47.1,30.23,South,183,2.0,7.0,89,0.00,,---,0.00,VWS V14.00,2013-02-28 10:52:00,
2013-02-28 02:57:00,50.2,47.1,30.23,South,188,1.0,7.0,89,0.00,,---,0.00,VWS V14.00,2013-02-28 10:57:00,
2013-02-28 03:02:00,50.2,47.1,30.23,South,184,4.0,8.0,89,0.00,,---,0.00,VWS V14.00,2013-02-28 11:02:00,
2013-02-28 03:07:00,50.3,47.2,30.23,SSW,211,4.0,9.0,89,0.00,,---,0.00,VWS V14.00,2013-02-28 11:07:00,
2013-02-28 03:12:00,50.3,47.5,30.23,South,182,3.0,11.0,90,0.00,,---,0.00,VWS V14.00,2013-02-28 11:12:00,
2013-02-28 03:17:00,50.1,47.3,30.23,SE,137,4.0,11.0,90,0.00,,---,0.00,VWS V14.00,2013-02-28 11:17:00,
2013-02-28 03:22:00,50.0,47.5,30.23,SE,142,2.0,11.0,91,0.00,,---,0.00,VWS V14.00,2013-02-28 11:22:00,
2013-02-28 03:27:00,49.8,47.6,30.23,South,170,1.0,11.0,92,0.00,,---,0.00,VWS V14.00,2013-02-28 11:27:00,
2013-02-28 03:32:00,49.7,47.5,30.23,South,182,1.0,11.0,92,0.00,,---,0.00,VWS V14.00,2013-02-28 11:32:00,
2013-02-28 03:37:00,49.7,47.5,30.23,South,187,2.0,6.0,92,0.00,,---,0.00,VWS V14.00,2013-02-28 11:37:00,
2013-02-28 03:42:00,49.7,47.5,30.23,SSW,201,4.0,6.0,92,0.00,,---,0.00,VWS V14.00,2013-02-28 11:42:00,
2013-02-28 03:47:00,49.7,47.2,30.23,SSW,212,3.0,6.0,91,0.00,,---,0.00,VWS V14.00,2013-02-28 11:47:00,
2013-02-28 03:52:00,49.8,47.3,30.23,South,178,2.0,6.0,91,0.00,,---,0.00,VWS V14.00,2013-02-28 11:52:00,
2013-02-28 03:57:00,49.9,47.4,30.23,SSE,160,4.0,6.0,91,0.00,,---,0.00,VWS V14.00,2013-02-28 11:57:00,
2013-02-28 04:02:00,50.0,47.5,30.23,SSE,165,2.0,9.0,91,0.00,,---,0.00,VWS V14.00,2013-02-28 12:02:00,
2013-02-28 04:07:00,50.2,47.4,30.23,SSE,149,2.0,8.0,90,0.00,,---,0.00,VWS V14.00,2013-02-28 12:07:00,
2013-02-28 04:12:00,50.3,47.5,30.23,South,170,4.0,8.0,90,0.00,,---,0.00,VWS V14.00,2013-02-28 12:12:00,
2013-02-28 04:17:00,50.3,47.5,30.23,SSE,159,4.0,9.0,90,0.00,,---,0.00,VWS V14.00,2013-02-28 12:17:00,
2013-02-28 04:22:00,50.3,47.5,30.23,SSW,213,5.0,10.0,90,0.00,,---,0.00,VWS V14.00,2013-02-28 12:22:00,
2013-02-28 04:27:00,50.2,47.7,30.23,South,169,5.0,10.0,91,0.00,,---,0.00,VWS V14.00,2013-02-28 12:27:00,
2013-02-28 04:32:00,50.1,47.6,30.23,SSW,205,3.0,3.0,91,0.00,,---,0.00,VWS V14.00,2013-02-28 12:32:00,
2013-02-28 04:37:00,50.0,47.8,30.24,South,172,4.0,7.0,92,0.00,,---,0.00,VWS V14.00,2013-02-28 12:37:00,
2013-02-28 04:42:00,49.9,47.7,30.24,South,186,6.0,7.0,92,0.00,,---,0.00,VWS V14.00,2013-02-28 12:42:00,
2013-02-28 04:47:00,49.8,47.9,30.24,South,182,3.0,11.0,93,0.00,,---,0.00,VWS V14.00,2013-02-28 12:47:00,
2013-02-28 04:52:00,49.7,47.8,30.23,SW,229,3.0,11.0,93,0.00,,---,0.00,VWS V14.00,2013-02-28 12:52:00,
2013-02-28 04:57:00,49.8,47.9,30.23,South,178,4.0,11.0,93,0.00,,---,0.00,VWS V14.00,2013-02-28 12:57:00,
2013-02-28 05:02:00,49.8,47.9,30.24,South,184,3.0,5.0,93,0.00,,---,0.00,VWS V14.00,2013-02-28 13:02:00,
2013-02-28 05:07:00,49.9,48.0,30.24,SSW,193,4.0,7.0,93,0.00,,---,0.00,VWS V14.00,2013-02-28 13:07:00,
2013-02-28 05:12:00,49.9,48.0,30.24,SSW,195,3.0,7.0,93,0.00,,---,0.00,VWS V14.00,2013-02-28 13:12:00,
2013-02-28 05:17:00,50.0,47.8,30.24,SSE,159,2.0,7.0,92,0.01,,---,0.01,VWS V14.00,2013-02-28 13:17:00,
2013-02-28 05:22:00,50.0,47.8,30.24,South,169,2.0,7.0,92,0.01,,---,0.01,VWS V14.00,2013-02-28 13:22:00,
2013-02-28 05:27:00,50.0,47.8,30.24,SSW,203,6.0,7.0,92,0.01,,---,0.01,VWS V14.00,2013-02-28 13:27:00,
2013-02-28 05:32:00,50.1,47.9,30.25,SSW,197,3.0,4.0,92,0.01,,---,0.01,VWS V14.00,2013-02-28 13:32:00,
2013-02-28 05:37:00,50.3,48.1,30.25,SSW,200,5.0,10.0,92,0.01,,---,0.01,VWS V14.00,2013-02-28 13:37:00,
2013-02-28 05:42:00,50.6,48.1,30.25,SSW,200,3.0,10.0,91,0.01,,---,0.01,VWS V14.00,2013-02-28 13:42:00,
2013-02-28 05:47:00,50.7,48.2,30.25,South,180,2.0,10.0,91,0.01,,---,0.01,VWS V14.00,2013-02-28 13:47:00,
2013-02-28 05:52:00,50.6,48.1,30.25,South,190,2.0,10.0,91,0.01,,---,0.01,VWS V14.00,2013-02-28 13:52:00,
2013-02-28 05:57:00,50.6,48.1,30.25,South,185,3.0,10.0,91,0.01,,---,0.01,VWS V14.00,2013-02-28 13:57:00,
2013-02-28 06:02:00,50.5,48.0,30.25,SSE,161,4.0,5.0,91,0.01,,---,0.01,VWS V14.00,2013-02-28 14:02:00,
2013-02-28 06:07:00,50.4,47.9,30.26,South,185,1.0,5.0,91,0.01,,---,0.01,VWS V14.00,2013-02-28 14:07:00,
2013-02-28 06:12:00,50.5,48.0,30.25,SSE,163,4.0,5.0,91,0.01,,---,0.01,VWS V14.00,2013-02-28 14:12:00,
2013-02-28 06:17:00,50.6,48.1,30.26,SSW,195,2.0,9.0,91,0.01,,---,0.01,VWS V14.00,2013-02-28 14:17:00,
2013-02-28 06:22:00,50.6,48.1,30.26,SSE,167,5.0,9.0,91,0.01,,---,0.01,VWS V14.00,2013-02-28 14:22:00,
2013-02-28 06:27:00,50.3,48.1,30.26,SSE,163,1.0,9.0,92,0.01,,---,0.01,VWS V14.00,2013-02-28 14:27:00,
2013-02-28 06:32:00,50.2,48.3,30.26,SSE,167,2.0,2.0,93,0.00,,---,0.01,VWS V14.00,2013-02-28 14:32:00,
2013-02-28 06:37:00,50.0,48.1,30.26,SSE,157,1.0,4.0,93,0.00,,---,0.01,VWS V14.00,2013-02-28 14:37:00,
2013-02-28 06:42:00,49.9,48.2,30.26,SSE,164,2.0,4.0,94,0.00,,---,0.01,VWS V14.00,2013-02-28 14:42:00,
2013-02-28 06:47:00,49.8,48.2,30.26,SSE,159,2.0,5.0,94,0.00,,---,0.01,VWS V14.00,2013-02-28 14:47:00,
2013-02-28 06:52:00,49.7,48.0,30.27,South,175,2.0,5.0,94,0.00,,---,0.01,VWS V14.00,2013-02-28 14:52:00,
2013-02-28 06:57:00,49.6,48.2,30.26,South,169,2.0,5.0,95,0.00,,---,0.01,VWS V14.00,2013-02-28 14:57:00,
2013-02-28 07:02:00,49.6,48.2,30.26,South,173,4.0,5.0,95,0.00,,---,0.01,VWS V14.00,2013-02-28 15:02:00,
2013-02-28 07:07:00,49.6,48.2,30.26,SSE,163,4.0,6.0,95,0.00,,---,0.01,VWS V14.00,2013-02-28 15:07:00,
2013-02-28 07:12:00,49.6,48.2,30.26,SSE,163,4.0,6.0,95,0.00,,---,0.01,VWS V14.00,2013-02-28 15:12:00,
2013-02-28 07:17:00,49.6,48.2,30.27,SSE,159,2.0,6.0,95,0.00,,---,0.01,VWS V14.00,2013-02-28 15:17:00,
2013-02-28 07:22:00,49.6,48.2,30.27,South,178,2.0,6.0,95,0.00,,---,0.01,VWS V14.00,2013-02-28 15:22:00,
2013-02-28 07:28:00,49.7,48.0,30.27,South,183,4.0,6.0,94,0.00,,---,0.01,VWS V14.00,2013-02-28 15:28:00,
2013-02-28 07:33:00,49.7,48.0,30.27,SSE,159,4.0,5.0,94,0.00,,---,0.01,VWS V14.00,2013-02-28 15:33:00,
2013-02-28 07:38:00,49.8,48.2,30.27,SSE,164,2.0,5.0,94,0.00,,---,0.01,VWS V14.00,2013-02-28 15:38:00,
2013-02-28 07:43:00,49.9,48.2,30.27,SSE,163,4.0,6.0,94,0.00,,---,0.01,VWS V14.00,2013-02-28 15:43:00,
2013-02-28 07:48:00,50.0,48.3,30.27,SSE,159,9.0,9.0,94,0.00,,---,0.01,VWS V14.00,2013-02-28 15:48:00,
2013-02-28 07:53:00,50.3,48.4,30.27,SW,223,4.0,9.0,93,0.00,,---,0.01,VWS V14.00,2013-02-28 15:53:00,
2013-02-28 07:58:00,50.5,48.6,30.27,SSW,213,8.0,9.0,93,0.00,,---,0.01,VWS V14.00,2013-02-28 15:58:00,
2013-02-28 08:03:00,50.6,48.4,30.27,South,175,4.0,6.0,92,0.00,,---,0.01,VWS V14.00,2013-02-28 16:03:00,
2013-02-28 08:08:00,50.8,48.6,30.28,South,178,7.0,7.0,92,0.00,,---,0.01,VWS V14.00,2013-02-28 16:08:00,
2013-02-28 08:13:00,50.8,48.6,30.28,SSW,192,4.0,7.0,92,0.00,,---,0.01,VWS V14.00,2013-02-28 16:13:00,
2013-02-28 08:18:00,50.9,48.7,30.28,SSE,160,1.0,7.0,92,0.00,,---,0.01,VWS V14.00,2013-02-28 16:18:00,
2013-02-28 08:23:00,51.0,48.8,30.28,South,184,3.0,9.0,92,0.00,,---,0.01,VWS V14.00,2013-02-28 16:23:00,
2013-02-28 08:28:00,51.1,48.9,30.28,South,186,4.0,9.0,92,0.00,,---,0.01,VWS V14.00,2013-02-28 16:28:00,
2013-02-28 08:33:00,51.1,48.9,30.28,SSE,165,5.0,7.0,92,0.00,,---,0.01,VWS V14.00,2013-02-28 16:33:00,
2013-02-28 08:38:00,51.2,48.7,30.29,South,169,4.0,9.0,91,0.00,,---,0.01,VWS V14.00,2013-02-28 16:38:00,
2013-02-28 08:43:00,51.2,48.7,30.29,SSE,160,2.0,9.0,91,0.00,,---,0.01,VWS V14.00,2013-02-28 16:43:00,
2013-02-28 08:48:00,51.2,49.0,30.29,South,169,5.0,9.0,92,0.00,,---,0.01,VWS V14.00,2013-02-28 16:48:00,
2013-02-28 08:53:00,51.1,48.9,30.29,South,173,2.0,9.0,92,0.00,,---,0.01,VWS V14.00,2013-02-28 16:53:00,
2013-02-28 08:58:00,51.0,48.8,30.30,SSW,211,3.0,9.0,92,0.00,,---,0.01,VWS V14.00,2013-02-28 16:58:00,
2013-02-28 09:03:00,51.1,48.9,30.30,SSE,168,4.0,7.0,92,0.00,,---,0.01,VWS V14.00,2013-02-28 17:03:00,
2013-02-28 09:08:00,51.1,48.9,30.30,South,174,4.0,8.0,92,0.00,,---,0.01,VWS V14.00,2013-02-28 17:08:00,
2013-02-28 09:13:00,51.0,49.0,30.30,SSE,168,2.0,8.0,93,0.00,,---,0.01,VWS V14.00,2013-02-28 17:13:00,
2013-02-28 09:18:00,51.0,49.0,30.31,South,171,4.0,9.0,93,0.00,,---,0.01,VWS V14.00,2013-02-28 17:18:00,
2013-02-28 09:23:00,51.0,49.0,30.31,South,171,1.0,9.0,93,0.00,,---,0.01,VWS V14.00,2013-02-28 17:23:00,
2013-02-28 09:28:00,51.0,49.0,30.31,South,184,2.0,9.0,93,0.00,,---,0.01,VWS V14.00,2013-02-28 17:28:00,
2013-02-28 09:33:00,51.0,49.0,30.31,South,173,2.0,5.0,93,0.00,,---,0.01,VWS V14.00,2013-02-28 17:33:00,
2013-02-28 09:38:00,51.0,49.0,30.31,South,191,3.0,8.0,93,0.00,,---,0.01,VWS V14.00,2013-02-28 17:38:00,
2013-02-28 09:43:00,51.0,49.0,30.32,SSE,160,2.0,8.0,93,0.00,,---,0.01,VWS V14.00,2013-02-28 17:43:00,
2013-02-28 09:48:00,51.0,49.3,30.32,South,170,2.0,9.0,94,0.01,,---,0.02,VWS V14.00,2013-02-28 17:48:00,
2013-02-28 09:53:00,51.0,49.3,30.32,South,180,2.0,9.0,94,0.01,,---,0.02,VWS V14.00,2013-02-28 17:53:00,
2013-02-28 09:58:00,51.0,49.3,30.32,SSW,207,1.0,9.0,94,0.01,,---,0.02,VWS V14.00,2013-02-28 17:58:00,
2013-02-28 10:03:00,50.9,49.2,30.32,South,173,1.0,4.0,94,0.01,,---,0.02,VWS V14.00,2013-02-28 18:03:00,
2013-02-28 10:08:00,50.9,49.2,30.32,SSE,166,4.0,6.0,94,0.01,,---,0.02,VWS V14.00,2013-02-28 18:08:00,
2013-02-28 10:13:00,50.9,49.5,30.32,South,171,5.0,6.0,95,0.01,,---,0.02,VWS V14.00,2013-02-28 18:13:00,
2013-02-28 10:18:00,50.9,49.5,30.32,SSE,153,5.0,6.0,95,0.02,,---,0.03,VWS V14.00,2013-02-28 18:18:00,
2013-02-28 10:23:00,51.0,49.6,30.32,South,180,3.0,6.0,95,0.03,,---,0.04,VWS V14.00,2013-02-28 18:23:00,
2013-02-28 10:28:00,51.0,49.6,30.33,SSE,157,4.0,7.0,95,0.03,,---,0.04,VWS V14.00,2013-02-28 18:28:00,
2013-02-28 10:33:00,51.1,49.7,30.33,SSW,201,3.0,6.0,95,0.03,,---,0.04,VWS V14.00,2013-02-28 18:33:00,
2013-02-28 10:38:00,51.2,49.8,30.33,SSW,200,2.0,8.0,95,0.03,,---,0.04,VWS V14.00,2013-02-28 18:38:00,
2013-02-28 10:43:00,51.3,49.9,30.33,South,181,3.0,8.0,95,0.03,,---,0.04,VWS V14.00,2013-02-28 18:43:00,
2013-02-28 10:48:00,51.4,50.0,30.32,SSE,155,6.0,9.0,95,0.03,,---,0.04,VWS V14.00,2013-02-28 18:48:00,
2013-02-28 10:53:00,51.5,50.1,30.33,South,169,2.0,9.0,95,0.03,,---,0.04,VWS V14.00,2013-02-28 18:53:00,
2013-02-28 10:58:00,51.7,50.3,30.33,SSW,198,4.0,9.0,95,0.03,,---,0.04,VWS V14.00,2013-02-28 18:58:00,
2013-02-28 11:03:00,51.9,50.5,30.33,South,178,10.0,10.0,95,0.02,,---,0.04,VWS V14.00,2013-02-28 19:03:00,
2013-02-28 11:08:00,52.0,50.3,30.33,SSW,195,3.0,10.0,94,0.02,,---,0.04,VWS V14.00,2013-02-28 19:08:00,
2013-02-28 11:14:00,52.2,50.5,30.33,SSW,197,3.0,10.0,94,0.02,,---,0.04,VWS V14.00,2013-02-28 19:14:00,
2013-02-28 11:18:00,52.4,50.7,30.33,SSE,148,5.0,12.0,94,0.02,,---,0.04,VWS V14.00,2013-02-28 19:18:00,
2013-02-28 11:24:00,52.7,50.7,30.33,SSW,206,8.0,14.0,93,0.02,,---,0.04,VWS V14.00,2013-02-28 19:24:00,
2013-02-28 11:29:00,52.9,50.9,30.34,SSW,193,5.0,14.0,93,0.02,,---,0.04,VWS V14.00,2013-02-28 19:29:00,
2013-02-28 11:34:00,53.0,50.7,30.34,South,183,4.0,11.0,92,0.00,,---,0.04,VWS V14.00,2013-02-28 19:34:00,
2013-02-28 11:39:00,53.2,50.9,30.34,SSE,163,4.0,13.0,92,0.00,,---,0.04,VWS V14.00,2013-02-28 19:39:00,
2013-02-28 11:44:00,53.3,51.0,30.34,SSW,196,6.0,13.0,92,0.00,,---,0.04,VWS V14.00,2013-02-28 19:44:00,
2013-02-28 11:49:00,53.4,51.1,30.34,SSW,211,4.0,13.0,92,0.00,,---,0.04,VWS V14.00,2013-02-28 19:49:00,
2013-02-28 11:54:00,53.4,51.1,30.34,SSW,209,6.0,13.0,92,0.00,,---,0.04,VWS V14.00,2013-02-28 19:54:00,
2013-02-28 11:59:00,53.3,51.0,30.34,South,190,7.0,17.0,92,0.00,,---,0.04,VWS V14.00,2013-02-28 19:59:00,
2013-02-28 12:04:00,53.3,50.7,30.34,SSW,200,10.0,14.0,91,0.00,,---,0.04,VWS V14.00,2013-02-28 20:04:00,
2013-02-28 12:09:00,53.3,51.0,30.34,SSW,192,5.0,14.0,92,0.00,,---,0.04,VWS V14.00,2013-02-28 20:09:00,
2013-02-28 12:14:00,53.4,51.1,30.34,SSE,152,7.0,14.0,92,0.00,,---,0.04,VWS V14.00,2013-02-28 20:14:00,
2013-02-28 12:19:00,53.5,51.2,30.34,SSW,205,6.0,14.0,92,0.00,,---,0.04,VWS V14.00,2013-02-28 20:19:00,
2013-02-28 12:24:00,53.7,51.4,30.34,SSW,211,7.0,14.0,92,0.00,,---,0.04,VWS V14.00,2013-02-28 20:24:00,
2013-02-28 12:29:00,53.9,51.6,30.34,SSW,194,6.0,14.0,92,0.00,,---,0.04,VWS V14.00,2013-02-28 20:29:00,
2013-02-28 12:34:00,54.1,51.8,30.34,South,182,4.0,11.0,92,0.00,,---,0.04,VWS V14.00,2013-02-28 20:34:00,
2013-02-28 12:39:00,54.1,51.5,30.34,SSW,192,4.0,13.0,91,0.00,,---,0.04,VWS V14.00,2013-02-28 20:39:00,
2013-02-28 12:44:00,54.2,51.6,30.35,SSW,207,11.0,13.0,91,0.00,,---,0.04,VWS V14.00,2013-02-28 20:44:00,
2013-02-28 12:49:00,54.2,51.6,30.35,SW,217,8.0,15.0,91,0.00,,---,0.04,VWS V14.00,2013-02-28 20:49:00,
2013-02-28 12:54:00,54.2,51.6,30.34,SSW,200,6.0,15.0,91,0.00,,---,0.04,VWS V14.00,2013-02-28 20:54:00,
2013-02-28 12:59:00,54.2,51.6,30.34,South,184,5.0,15.0,91,0.00,,---,0.04,VWS V14.00,2013-02-28 20:59:00,
2013-02-28 13:04:00,54.3,51.7,30.34,WSW,244,4.0,12.0,91,0.00,,---,0.04,VWS V14.00,2013-02-28 21:04:00,
2013-02-28 13:09:00,54.4,51.8,30.34,SSW,212,5.0,12.0,91,0.00,,---,0.04,VWS V14.00,2013-02-28 21:09:00,
2013-02-28 13:14:00,54.5,51.9,30.34,South,172,6.0,12.0,91,0.00,,---,0.04,VWS V14.00,2013-02-28 21:14:00,
2013-02-28 13:19:00,54.6,51.7,30.34,South,180,5.0,13.0,90,0.00,,---,0.04,VWS V14.00,2013-02-28 21:19:00,
2013-02-28 13:24:00,54.7,52.1,30.33,South,189,7.0,13.0,91,0.00,,---,0.04,VWS V14.00,2013-02-28 21:24:00,
2013-02-28 13:29:00,54.8,51.9,30.33,SSW,194,7.0,14.0,90,0.00,,---,0.04,VWS V14.00,2013-02-28 21:29:00,
2013-02-28 13:34:00,55.4,52.2,30.34,SW,215,8.0,10.0,89,0.00,,---,0.04,VWS V14.00,2013-02-28 21:34:00,
2013-02-28 13:39:00,55.8,52.0,30.34,ESE,117,9.0,13.0,87,0.00,,---,0.04,VWS V14.00,2013-02-28 21:39:00,
2013-02-28 13:44:00,55.7,51.6,30.34,SW,219,5.0,17.0,86,0.00,,---,0.04,VWS V14.00,2013-02-28 21:44:00,
2013-02-28 13:49:00,55.7,51.9,30.34,SSW,192,5.0,17.0,87,0.00,,---,0.04,VWS V14.00,2013-02-28 21:49:00,
2013-02-28 13:54:00,55.9,52.1,30.34,SSW,201,7.0,17.0,87,0.00,,---,0.04,VWS V14.00,2013-02-28 21:54:00,
2013-02-28 13:59:00,56.0,51.9,30.34,South,190,8.0,17.0,86,0.00,,---,0.04,VWS V14.00,2013-02-28 21:59:00,
2013-02-28 14:04:00,56.0,52.2,30.34,South,172,7.0,10.0,87,0.00,,---,0.04,VWS V14.00,2013-02-28 22:04:00,
2013-02-28 14:09:00,56.0,52.2,30.34,SSW,210,5.0,11.0,87,0.00,,---,0.04,VWS V14.00,2013-02-28 22:09:00,
2013-02-28 14:14:00,56.0,52.2,30.34,South,185,7.0,12.0,87,0.00,,---,0.04,VWS V14.00,2013-02-28 22:14:00,
2013-02-28 14:19:00,56.0,51.9,30.35,SSE,165,4.0,16.0,86,0.00,,---,0.04,VWS V14.00,2013-02-28 22:19:00,
2013-02-28 14:24:00,55.9,52.1,30.34,South,176,6.0,16.0,87,0.00,,---,0.04,VWS V14.00,2013-02-28 22:24:00,
2013-02-28 14:29:00,55.9,51.8,30.35,SSE,167,9.0,16.0,86,0.00,,---,0.04,VWS V14.00,2013-02-28 22:29:00,
2013-02-28 14:34:00,55.9,51.8,30.35,South,191,5.0,13.0,86,0.00,,---,0.04,VWS V14.00,2013-02-28 22:34:00,
2013-02-28 14:39:00,55.9,51.8,30.35,SSE,156,7.0,13.0,86,0.00,,---,0.04,VWS V14.00,2013-02-28 22:39:00,
2013-02-28 14:45:00,55.9,52.1,30.35,SW,219,2.0,13.0,87,0.00,,---,0.04,VWS V14.00,2013-02-28 22:45:00,
2013-02-28 14:50:00,55.9,52.1,30.35,South,182,6.0,13.0,87,0.00,,---,0.04,VWS V14.00,2013-02-28 22:50:00,
2013-02-28 14:55:00,55.7,52.2,30.36,SSW,196,3.0,13.0,88,0.00,,---,0.04,VWS V14.00,2013-02-28 22:55:00,
2013-02-28 15:00:00,55.4,52.5,30.36,South,169,5.0,13.0,90,0.00,,---,0.04,VWS V14.00,2013-02-28 23:00:00,
2013-02-28 15:05:00,55.2,52.3,30.36,WSW,242,7.0,11.0,90,0.00,,---,0.04,VWS V14.00,2013-02-28 23:05:00,
2013-02-28 15:10:00,54.8,52.5,30.37,SSW,200,7.0,12.0,92,0.00,,---,0.04,VWS V14.00,2013-02-28 23:10:00,
2013-02-28 15:15:00,54.5,52.5,30.36,SW,223,5.0,12.0,93,0.00,,---,0.04,VWS V14.00,2013-02-28 23:15:00,
2013-02-28 15:20:00,54.3,52.3,30.37,South,189,4.0,12.0,93,0.01,,---,0.05,VWS V14.00,2013-02-28 23:20:00,
2013-02-28 15:25:00,54.3,52.6,30.37,SSW,195,4.0,12.0,94,0.01,,---,0.05,VWS V14.00,2013-02-28 23:25:00,
2013-02-28 15:30:00,54.2,52.5,30.36,SSE,160,4.0,12.0,94,0.01,,---,0.05,VWS V14.00,2013-02-28 23:30:00,
2013-02-28 15:35:00,54.4,52.7,30.36,SSW,196,3.0,9.0,94,0.01,,---,0.05,VWS V14.00,2013-02-28 23:35:00,
2013-02-28 15:40:00,54.5,52.8,30.36,SW,215,4.0,10.0,94,0.01,,---,0.05,VWS V14.00,2013-02-28 23:40:00,
2013-02-28 15:45:00,54.5,52.8,30.36,SSW,202,5.0,12.0,94,0.01,,---,0.05,VWS V14.00,2013-02-28 23:45:00,
2013-02-28 15:50:00,54.5,52.8,30.36,SSW,194,6.0,12.0,94,0.01,,---,0.05,VWS V14.00,2013-02-28 23:50:00,
2013-02-28 15:55:00,54.4,52.7,30.36,SSW,198,3.0,12.0,94,0.01,,---,0.05,VWS V14.00,2013-02-28 23:55:00,
2013-02-28 16:00:00,54.5,52.8,30.37,South,191,3.0,12.0,94,0.01,,---,0.05,VWS V14.00,2013-03-01 00:00:00,
2013-02-28 16:05:00,54.6,52.6,30.37,South,183,4.0,10.0,93,0.01,,---,0.05,VWS V14.00,2013-03-01 00:05:00,
2013-02-28 16:10:00,54.8,52.8,30.37,SW,224,2.0,10.0,93,0.01,,---,0.05,VWS V14.00,2013-03-01 00:10:00,
2013-02-28 16:15:00,54.9,52.9,30.37,SW,220,2.0,10.0,93,0.01,,---,0.05,VWS V14.00,2013-03-01 00:15:00,
2013-02-28 16:20:00,54.9,52.6,30.38,SSE,153,5.0,10.0,92,0.01,,---,0.05,VWS V14.00,2013-03-01 00:20:00,
2013-02-28 16:25:00,55.0,52.7,30.38,SSW,213,3.0,10.0,92,0.01,,---,0.05,VWS V14.00,2013-03-01 00:25:00,
2013-02-28 16:30:00,55.0,52.7,30.38,SSE,163,4.0,10.0,92,0.01,,---,0.05,VWS V14.00,2013-03-01 00:30:00,
2013-02-28 16:35:00,54.8,52.5,30.39,SSW,200,4.0,6.0,92,0.00,,---,0.05,VWS V14.00,2013-03-01 00:35:00,
2013-02-28 16:40:00,54.7,52.7,30.39,SSE,159,5.0,8.0,93,0.00,,---,0.05,VWS V14.00,2013-03-01 00:40:00,
2013-02-28 16:45:00,54.5,52.5,30.39,South,169,5.0,8.0,93,0.00,,---,0.05,VWS V14.00,2013-03-01 00:45:00,
2013-02-28 16:50:00,54.3,52.6,30.39,SSW,196,3.0,8.0,94,0.00,,---,0.05,VWS V14.00,2013-03-01 00:50:00,
2013-02-28 16:55:00,54.2,52.5,30.39,SSW,202,3.0,9.0,94,0.00,,---,0.05,VWS V14.00,2013-03-01 00:55:00,
2013-02-28 17:00:00,54.2,52.5,30.39,SW,219,2.0,9.0,94,0.00,,---,0.05,VWS V14.00,2013-03-01 01:00:00,
2013-02-28 17:05:00,54.2,52.8,30.39,South,175,2.0,6.0,95,0.01,,---,0.06,VWS V14.00,2013-03-01 01:05:00,
2013-02-28 17:10:00,54.3,52.9,30.39,South,179,2.0,8.0,95,0.01,,---,0.06,VWS V14.00,2013-03-01 01:10:00,
2013-02-28 17:15:00,54.3,52.9,30.39,South,171,5.0,8.0,95,0.01,,---,0.06,VWS V14.00,2013-03-01 01:15:00,
2013-02-28 17:20:00,54.3,52.6,30.39,SW,233,3.0,10.0,94,0.01,,---,0.06,VWS V14.00,2013-03-01 01:20:00,
2013-02-28 17:25:00,54.3,52.6,30.40,South,191,4.0,12.0,94,0.01,,---,0.06,VWS V14.00,2013-03-01 01:25:00,
2013-02-28 17:30:00,54.3,52.9,30.40,South,190,4.0,12.0,95,0.01,,---,0.06,VWS V14.00,2013-03-01 01:30:00,
2013-02-28 17:35:00,54.2,52.8,30.40,SSW,202,2.0,6.0,95,0.01,,---,0.06,VWS V14.00,2013-03-01 01:35:00,
2013-02-28 17:40:00,54.1,52.7,30.40,South,175,1.0,6.0,95,0.01,,---,0.06,VWS V14.00,2013-03-01 01:40:00,
2013-02-28 17:45:00,54.1,52.7,30.40,South,184,4.0,6.0,95,0.01,,---,0.06,VWS V14.00,2013-03-01 01:45:00,
2013-02-28 17:50:00,54.0,52.6,30.40,South,187,2.0,8.0,95,0.01,,---,0.06,VWS V14.00,2013-03-01 01:50:00,
2013-02-28 17:55:00,53.9,52.5,30.40,South,177,7.0,8.0,95,0.01,,---,0.06,VWS V14.00,2013-03-01 01:55:00,
2013-02-28 18:00:00,53.8,52.4,30.40,SSW,194,4.0,8.0,95,0.01,,---,0.06,VWS V14.00,2013-03-01 02:00:00,
2013-02-28 18:05:00,53.7,52.6,30.40,SSW,192,2.0,8.0,96,0.01,,---,0.06,VWS V14.00,2013-03-01 02:05:00,
2013-02-28 18:10:00,53.6,52.5,30.40,South,173,5.0,8.0,96,0.01,,---,0.06,VWS V14.00,2013-03-01 02:10:00,
2013-02-28 18:15:00,53.5,52.4,30.40,SSE,167,6.0,8.0,96,0.01,,---,0.06,VWS V14.00,2013-03-01 02:15:00,
2013-02-28 18:20:00,53.5,52.4,30.40,South,178,5.0,8.0,96,0.01,,---,0.06,VWS V14.00,2013-03-01 02:20:00,
2013-02-28 18:25:00,53.4,52.3,30.41,South,187,1.0,8.0,96,0.01,,---,0.06,VWS V14.00,2013-03-01 02:25:00,
2013-02-28 18:30:00,53.4,52.3,30.41,South,171,5.0,8.0,96,0.01,,---,0.06,VWS V14.00,2013-03-01 02:30:00,
2013-02-28 18:35:00,53.3,52.2,30.41,South,190,2.0,6.0,96,0.00,,---,0.06,VWS V14.00,2013-03-01 02:35:00,
2013-02-28 18:40:00,53.3,52.2,30.41,South,177,4.0,6.0,96,0.00,,---,0.06,VWS V14.00,2013-03-01 02:40:00,
2013-02-28 18:45:00,53.2,51.8,30.41,South,180,3.0,6.0,95,0.00,,---,0.06,VWS V14.00,2013-03-01 02:45:00,
2013-02-28 18:50:00,53.2,51.8,30.41,South,170,4.0,6.0,95,0.00,,---,0.06,VWS V14.00,2013-03-01 02:50:00,
2013-02-28 18:56:00,53.2,51.8,30.41,South,185,1.0,7.0,95,0.00,,---,0.06,VWS V14.00,2013-03-01 02:56:00,
2013-02-28 19:01:00,53.2,51.8,30.41,SSW,207,2.0,7.0,95,0.00,,---,0.06,VWS V14.00,2013-03-01 03:01:00,
2013-02-28 19:06:00,53.1,51.7,30.42,SSE,164,1.0,4.0,95,0.00,,---,0.06,VWS V14.00,2013-03-01 03:06:00,
2013-02-28 19:11:00,53.0,51.6,30.42,SSE,157,4.0,4.0,95,0.00,,---,0.06,VWS V14.00,2013-03-01 03:11:00,
2013-02-28 19:16:00,53.0,51.6,30.42,South,173,2.0,5.0,95,0.00,,---,0.06,VWS V14.00,2013-03-01 03:16:00,
2013-02-28 19:21:00,53.0,51.9,30.42,SSE,163,0.0,5.0,96,0.00,,---,0.06,VWS V14.00,2013-03-01 03:21:00,
2013-02-28 19:26:00,52.9,51.8,30.42,South,171,4.0,5.0,96,0.00,,---,0.06,VWS V14.00,2013-03-01 03:26:00,
2013-02-28 19:31:00,52.9,51.8,30.42,SSE,159,2.0,5.0,96,0.00,,---,0.06,VWS V14.00,2013-03-01 03:31:00,
2013-02-28 19:36:00,52.9,51.8,30.42,SE,144,4.0,5.0,96,0.00,,---,0.06,VWS V14.00,2013-03-01 03:36:00,
2013-02-28 19:41:00,52.9,51.8,30.42,SSE,155,2.0,5.0,96,0.00,,---,0.06,VWS V14.00,2013-03-01 03:41:00,
2013-02-28 19:46:00,52.9,51.8,30.42,SSE,161,1.0,7.0,96,0.00,,---,0.06,VWS V14.00,2013-03-01 03:46:00,
2013-02-28 19:51:00,52.9,51.8,30.43,South,182,2.0,7.0,96,0.00,,---,0.06,VWS V14.00,2013-03-01 03:51:00,
2013-02-28 19:56:00,52.9,51.8,30.43,South,175,1.0,7.0,96,0.00,,---,0.06,VWS V14.00,2013-03-01 03:56:00,
2013-02-28 20:01:00,52.8,51.7,30.43,SW,222,3.0,7.0,96,0.00,,---,0.06,VWS V14.00,2013-03-01 04:01:00,
2013-02-28 20:06:00,52.9,51.8,30.43,SSW,205,2.0,7.0,96,0.00,,---,0.06,VWS V14.00,2013-03-01 04:06:00,
2013-02-28 20:11:00,53.0,51.9,30.43,SSW,192,1.0,7.0,96,0.00,,---,0.06,VWS V14.00,2013-03-01 04:11:00,
2013-02-28 20:16:00,52.8,51.4,30.43,SSE,155,1.0,7.0,95,0.00,,---,0.06,VWS V14.00,2013-03-01 04:16:00,
2013-02-28 20:21:00,52.7,51.3,30.43,SE,140,1.0,7.0,95,0.00,,---,0.06,VWS V14.00,2013-03-01 04:21:00,
2013-02-28 20:26:00,52.6,51.2,30.43,SSE,165,2.0,7.0,95,0.00,,---,0.06,VWS V14.00,2013-03-01 04:26:00,
2013-02-28 20:31:00,52.6,51.2,30.43,South,189,2.0,7.0,95,0.00,,---,0.06,VWS V14.00,2013-03-01 04:31:00,
2013-02-28 20:36:00,52.6,51.2,30.43,South,171,2.0,6.0,95,0.00,,---,0.06,VWS V14.00,2013-03-01 04:36:00,
2013-02-28 20:41:00,52.6,51.2,30.44,SSE,160,1.0,6.0,95,0.00,,---,0.06,VWS V14.00,2013-03-01 04:41:00,
2013-02-28 20:46:00,52.6,51.2,30.43,SSW,192,5.0,6.0,95,0.00,,---,0.06,VWS V14.00,2013-03-01 04:46:00,
2013-02-28 20:51:00,52.8,51.4,30.44,SE,146,6.0,7.0,95,0.00,,---,0.06,VWS V14.00,2013-03-01 04:51:00,
2013-02-28 20:56:00,52.9,51.2,30.44,South,188,5.0,9.0,94,0.00,,---,0.06,VWS V14.00,2013-03-01 04:56:00,
2013-02-28 21:00:00,53.0,51.3,30.44,SSW,196,2.0,10.0,94,0.00,,---,0.06,VWS V14.00,2013-03-01 05:00:00,
2013-02-28 21:05:00,53.0,51.3,30.44,SW,228,3.0,5.0,94,0.00,,---,0.06,VWS V14.00,2013-03-01 05:05:00,
2013-02-28 21:06:00,53.0,51.3,30.44,SW,220,3.0,5.0,94,0.00,,---,0.06,VWS V14.00,2013-03-01 05:06:00,
2013-02-28 21:11:00,53.1,51.4,30.44,SW,221,3.0,8.0,94,0.01,,---,0.07,VWS V14.00,2013-03-01 05:11:00,
2013-02-28 21:16:00,53.1,51.4,30.43,South,188,1.0,8.0,94,0.01,,---,0.07,VWS V14.00,2013-03-01 05:16:00,
2013-02-28 21:21:00,53.1,51.1,30.44,South,182,6.0,8.0,93,0.01,,---,0.07,VWS V14.00,2013-03-01 05:21:00,
2013-02-28 21:26:00,53.2,51.2,30.44,SSE,150,4.0,8.0,93,0.01,,---,0.07,VWS V14.00,2013-03-01 05:26:00,
2013-02-28 21:31:00,53.1,51.1,30.44,SSW,196,2.0,8.0,93,0.01,,---,0.07,VWS V14.00,2013-03-01 05:31:00,
2013-02-28 21:36:00,53.0,51.0,30.44,SW,227,4.0,4.0,93,0.01,,---,0.07,VWS V14.00,2013-03-01 05:36:00,
2013-02-28 21:41:00,52.9,51.2,30.45,SW,221,2.0,8.0,94,0.01,,---,0.07,VWS V14.00,2013-03-01 05:41:00,
2013-02-28 21:46:00,52.8,51.1,30.45,SSW,199,1.0,8.0,94,0.01,,---,0.07,VWS V14.00,2013-03-01 05:46:00,
2013-02-28 21:51:00,52.7,51.0,30.45,South,190,2.0,8.0,94,0.01,,---,0.07,VWS V14.00,2013-03-01 05:51:00,
2013-02-28 21:56:00,52.7,51.3,30.45,SSW,205,2.0,8.0,95,0.01,,---,0.07,VWS V14.00,2013-03-01 05:56:00,
2013-02-28 22:01:00,52.6,51.2,30.45,SSW,202,3.0,8.0,95,0.01,,---,0.07,VWS V14.00,2013-03-01 06:01:00,
2013-02-28 22:06:00,52.7,51.3,30.46,South,188,2.0,6.0,95,0.01,,---,0.07,VWS V14.00,2013-03-01 06:06:00,
2013-02-28 22:11:00,52.9,51.2,30.46,SSW,209,3.0,8.0,94,0.01,,---,0.07,VWS V14.00,2013-03-01 06:11:00,
2013-02-28 22:16:00,53.0,51.3,30.46,SSE,159,2.0,8.0,94,0.01,,---,0.07,VWS V14.00,2013-03-01 06:16:00,
2013-02-28 22:21:00,53.0,51.3,30.46,SSE,159,5.0,8.0,94,0.01,,---,0.07,VWS V14.00,2013-03-01 06:21:00,
2013-02-28 22:26:00,53.1,51.4,30.46,SE,139,2.0,8.0,94,0.01,,---,0.07,VWS V14.00,2013-03-01 06:26:00,
2013-02-28 22:31:00,53.2,51.2,30.46,South,186,3.0,8.0,93,0.01,,---,0.07,VWS V14.00,2013-03-01 06:31:00,
2013-02-28 22:36:00,53.3,51.3,30.46,SW,233,3.0,9.0,93,0.00,,---,0.07,VWS V14.00,2013-03-01 06:36:00,
2013-02-28 22:41:00,53.3,51.3,30.46,South,184,3.0,9.0,93,0.00,,---,0.07,VWS V14.00,2013-03-01 06:41:00,
2013-02-28 22:46:00,53.2,51.2,30.46,SSW,196,6.0,9.0,93,0.00,,---,0.07,VWS V14.00,2013-03-01 06:46:00,
2013-02-28 22:51:00,53.1,51.1,30.46,South,189,3.0,13.0,93,0.00,,---,0.07,VWS V14.00,2013-03-01 06:51:00,
2013-02-28 22:56:00,53.0,51.0,30.46,SSW,195,4.0,13.0,93,0.00,,---,0.07,VWS V14.00,2013-03-01 06:56:00,
2013-02-28 23:01:00,53.0,51.0,30.46,SSE,167,7.0,13.0,93,0.00,,---,0.07,VWS V14.00,2013-03-01 07:01:00,
2013-02-28 23:06:00,53.1,51.1,30.46,SSW,200,4.0,12.0,93,0.00,,---,0.07,VWS V14.00,2013-03-01 07:06:00,
2013-02-28 23:11:00,53.1,50.8,30.46,SSW,207,3.0,12.0,92,0.00,,---,0.07,VWS V14.00,2013-03-01 07:11:00,
2013-02-28 23:16:00,53.1,50.8,30.46,South,186,3.0,12.0,92,0.00,,---,0.07,VWS V14.00,2013-03-01 07:16:00,
2013-02-28 23:22:00,53.1,50.8,30.46,South,188,3.0,12.0,92,0.00,,---,0.07,VWS V14.00,2013-03-01 07:22:00,
2013-02-28 23:26:00,53.1,50.8,30.46,SW,218,5.0,12.0,92,0.00,,---,0.07,VWS V14.00,2013-03-01 07:26:00,
2013-02-28 23:32:00,53.1,50.8,30.46,SSW,194,4.0,12.0,92,0.00,,---,0.07,VWS V14.00,2013-03-01 07:32:00,
2013-02-28 23:37:00,53.2,50.9,30.46,SSW,193,8.0,8.0,92,0.00,,---,0.07,VWS V14.00,2013-03-01 07:37:00,
2013-02-28 23:42:00,53.2,50.9,30.46,SSW,193,4.0,8.0,92,0.00,,---,0.07,VWS V14.00,2013-03-01 07:42:00,
2013-02-28 23:47:00,53.1,51.1,30.46,SSW,198,3.0,9.0,93,0.00,,---,0.07,VWS V14.00,2013-03-01 07:47:00,
2013-02-28 23:52:00,53.0,51.0,30.46,South,186,1.0,9.0,93,0.00,,---,0.07,VWS V14.00,2013-03-01 07:52:00,
2013-02-28 23:57:00,53.0,51.0,30.46,SW,224,3.0,9.0,93,0.00,,---,0.07,VWS V14.00,2013-03-01 07:57:00,